,,PA_Meas_PMT16A,,PR_Meas_QMR101_102,,RH_Meas_QMH101,,SR_Meas_QMS101,,TA_Meas_QMH101,,GenWind,,GenWind,
time,status,PA,status,PR,status,RH,status,SR,status,TA,status,DirAvg,status,SpdAvg,
2015-06-25, 07:20:04,VALID,919.011,VALID,0,VALID,99.2645,VALID,90.4654,VALID,18.7293,VALID,140,VALID,0,
2015-06-25, 07:21:04,VALID,919.032,VALID,0,VALID,99.2797,VALID,108.73,VALID,18.7683,VALID,140,VALID,0,
2015-06-25, 07:22:04,VALID,919.04,VALID,0,VALID,99.2569,VALID,96.2673,VALID,18.8463,VALID,140,VALID,0,
2015-06-25, 07:23:04,VALID,919.037,VALID,0,VALID,99.2493,VALID,107.441,VALID,18.8839,VALID,140,VALID,0,
2015-06-25, 07:24:04,VALID,919.095,VALID,0,VALID,99.234,VALID,122.268,VALID,18.9828,VALID,140,VALID,0,
2015-06-25, 07:25:04,VALID,919.086,VALID,0,VALID,99.2493,VALID,100.457,VALID,19.0008,VALID,152,VALID,0,
2015-06-25, 07:26:04,VALID,919.122,VALID,0,VALID,99.2569,VALID,85.5232,VALID,19.0008,VALID,161,VALID,0.987891,
2015-06-25, 07:27:04,VALID,919.15,VALID,0,VALID,99.2721,VALID,136.343,VALID,19.0413,VALID,161,VALID,1.22812,
2015-06-25, 07:28:04,VALID,919.163,VALID,0,VALID,99.2569,VALID,159.872,VALID,19.0593,VALID,149,VALID,0.982031,
2015-06-25, 07:29:04,VALID,919.153,VALID,0,VALID,99.2721,VALID,162.773,VALID,19.0398,VALID,150,VALID,0.971875,
2015-06-25, 07:30:04,VALID,919.138,VALID,0,VALID,99.2874,VALID,163.311,VALID,19.0998,VALID,152,VALID,0.994141,
2015-06-25, 07:31:04,VALID,919.156,VALID,0,VALID,99.2493,VALID,167.071,VALID,19.1373,VALID,152,VALID,1.27539,
2015-06-25, 07:32:04,VALID,919.162,VALID,0,VALID,99.234,VALID,171.906,VALID,19.1958,VALID,148,VALID,0.878125,
2015-06-25, 07:33:04,VALID,919.205,VALID,0,VALID,99.2416,VALID,172.873,VALID,19.2933,VALID,151,VALID,0.866797,
2015-06-25, 07:34:04,VALID,919.217,VALID,0,VALID,99.2188,VALID,147.839,VALID,19.3728,VALID,154,VALID,1.08008,
2015-06-25, 07:35:04,VALID,919.222,VALID,0,VALID,99.2111,VALID,134.839,VALID,19.4298,VALID,137,VALID,0.821875,
2015-06-25, 07:36:04,VALID,919.277,VALID,0,VALID,99.234,VALID,144.831,VALID,19.4688,VALID,142,VALID,1.08438,
2015-06-25, 07:37:04,VALID,919.305,VALID,0,VALID,99.2416,VALID,148.054,VALID,19.4883,VALID,149,VALID,1.44492,
2015-06-25, 07:38:04,VALID,919.313,VALID,0,VALID,99.2493,VALID,137.095,VALID,19.5663,VALID,149,VALID,1.45742,
2015-06-25, 07:39:04,VALID,919.313,VALID,0,VALID,99.3102,VALID,144.079,VALID,19.4883,VALID,156,VALID,1.21445,
2015-06-25, 07:40:04,VALID,919.294,VALID,0,VALID,99.3026,VALID,152.029,VALID,19.5858,VALID,137,VALID,0.660937,
2015-06-25, 07:41:04,VALID,919.304,VALID,0,VALID,99.3102,VALID,127.103,VALID,19.6053,VALID,128,VALID,0.942578,
2015-06-25, 07:42:04,VALID,919.282,VALID,0,VALID,99.3636,VALID,96.0524,VALID,19.6053,VALID,142,VALID,1.19609,
2015-06-25, 07:43:04,VALID,919.273,VALID,0,VALID,99.3712,VALID,95.6226,VALID,19.6833,VALID,118,VALID,0.598047,
2015-06-25, 07:44:04,VALID,919.3,VALID,0,VALID,99.3484,VALID,127.855,VALID,19.7988,VALID,108,VALID,0.641016,
2015-06-25, 07:45:04,VALID,919.336,VALID,0,VALID,99.3026,VALID,172.443,VALID,19.9353,VALID,106,VALID,0.615234,
2015-06-25, 07:46:04,VALID,919.34,VALID,0,VALID,99.295,VALID,190.171,VALID,20.0328,VALID,106,VALID,0,
2015-06-25, 07:47:04,VALID,919.403,VALID,0,VALID,99.2493,VALID,196.402,VALID,20.2473,VALID,106,VALID,0,
2015-06-25, 07:48:04,VALID,919.41,VALID,0,VALID,99.2721,VALID,202.419,VALID,20.2863,VALID,101,VALID,0,
2015-06-25, 07:49:04,VALID,919.404,VALID,0,VALID,99.3102,VALID,202.204,VALID,20.3643,VALID,76,VALID,0,
2015-06-25, 07:50:04,VALID,919.407,VALID,0,VALID,99.3484,VALID,200.808,VALID,20.4259,VALID,101,VALID,0.848047,
2015-06-25, 07:51:04,VALID,919.392,VALID,0,VALID,99.4475,VALID,208.114,VALID,20.4049,VALID,135,VALID,1.08477,
2015-06-25, 07:52:04,VALID,919.414,VALID,0,VALID,99.4551,VALID,208.973,VALID,20.4829,VALID,139,VALID,0.275391,
2015-06-25, 07:53:04,VALID,919.422,VALID,0,VALID,99.5237,VALID,209.94,VALID,20.4634,VALID,140,VALID,1.16211,
2015-06-25, 07:54:04,VALID,919.393,VALID,0,VALID,99.5237,VALID,214.453,VALID,20.5024,VALID,136,VALID,1.23047,
2015-06-25, 07:55:04,VALID,919.4,VALID,0,VALID,99.4856,VALID,218.535,VALID,20.5609,VALID,167,VALID,0.0878906,
2015-06-25, 07:56:04,VALID,919.397,VALID,0,VALID,99.4246,VALID,221.973,VALID,20.678,VALID,165,VALID,0,
2015-06-25, 07:57:04,VALID,919.4,VALID,0,VALID,99.3331,VALID,224.122,VALID,20.795,VALID,165,VALID,0,
2015-06-25, 07:58:04,VALID,919.433,VALID,0,VALID,99.2264,VALID,225.626,VALID,20.9901,VALID,165,VALID,0,
2015-06-25, 07:59:04,VALID,919.429,VALID,0,VALID,99.1501,VALID,228.85,VALID,21.1852,VALID,157,VALID,0,
2015-06-25, 08:00:04,VALID,919.421,VALID,0,VALID,99.0053,VALID,232.503,VALID,21.3591,VALID,139,VALID,0,
2015-06-25, 08:01:04,VALID,919.444,VALID,0,VALID,98.5022,VALID,236.048,VALID,21.4567,VALID,128,VALID,0,
2015-06-25, 08:02:04,VALID,919.472,VALID,0,VALID,97.351,VALID,239.809,VALID,21.5737,VALID,160,VALID,0,
2015-06-25, 08:03:04,VALID,919.518,VALID,0,VALID,95.3918,VALID,245.825,VALID,21.6713,VALID,162,VALID,0,
2015-06-25, 08:04:04,VALID,919.538,VALID,0,VALID,91.885,VALID,250.123,VALID,21.8079,VALID,160,VALID,0,
2015-06-25, 08:05:04,VALID,919.539,VALID,0,VALID,88.1267,VALID,252.702,VALID,21.9054,VALID,160,VALID,0,
2015-06-25, 08:06:04,VALID,919.523,VALID,0,VALID,85.5347,VALID,253.991,VALID,21.8859,VALID,141,VALID,0,
2015-06-25, 08:07:04,VALID,919.538,VALID,0,VALID,84.9096,VALID,253.454,VALID,21.8079,VALID,138,VALID,0,
2015-06-25, 08:08:04,VALID,919.529,VALID,0,VALID,86.2894,VALID,249.263,VALID,21.7103,VALID,157,VALID,0,
2015-06-25, 08:09:04,VALID,919.536,VALID,0,VALID,85.9921,VALID,258.933,VALID,21.6908,VALID,132,VALID,0,
2015-06-25, 08:10:04,VALID,919.525,VALID,0,VALID,87.128,VALID,262.156,VALID,21.6908,VALID,160,VALID,0,
2015-06-25, 08:11:04,VALID,919.534,VALID,0,VALID,85.1688,VALID,267.958,VALID,21.6111,VALID,157,VALID,0,
2015-06-25, 08:12:04,VALID,919.562,VALID,0,VALID,86.6935,VALID,272.578,VALID,21.6128,VALID,181,VALID,0,
2015-06-25, 08:13:04,VALID,919.502,VALID,0,VALID,86.0684,VALID,275.049,VALID,21.5916,VALID,144,VALID,0,
2015-06-25, 08:14:04,VALID,919.53,VALID,0,VALID,86.3885,VALID,278.165,VALID,21.6111,VALID,150,VALID,0,
2015-06-25, 08:15:04,VALID,919.536,VALID,0,VALID,86.3657,VALID,281.173,VALID,21.6518,VALID,154,VALID,0,
2015-06-25, 08:16:04,VALID,919.538,VALID,0,VALID,85.9998,VALID,287.19,VALID,21.7493,VALID,154,VALID,0,
2015-06-25, 08:17:04,VALID,919.547,VALID,0,VALID,85.5424,VALID,290.843,VALID,21.7883,VALID,154,VALID,0,
2015-06-25, 08:18:04,VALID,919.57,VALID,0,VALID,85.3899,VALID,294.819,VALID,21.7883,VALID,154,VALID,0,
2015-06-25, 08:19:04,VALID,919.593,VALID,0,VALID,85.7863,VALID,298.579,VALID,21.8469,VALID,155,VALID,0,
2015-06-25, 08:20:04,VALID,919.601,VALID,0,VALID,86.3962,VALID,300.943,VALID,22.003,VALID,155,VALID,0,
2015-06-25, 08:21:04,VALID,919.599,VALID,0,VALID,85.6415,VALID,302.769,VALID,22.1786,VALID,164,VALID,0,
2015-06-25, 08:22:04,VALID,919.6,VALID,0,VALID,84.6885,VALID,305.992,VALID,22.3347,VALID,181,VALID,0,
2015-06-25, 08:23:04,VALID,919.59,VALID,0,VALID,84.6123,VALID,310.183,VALID,22.4518,VALID,211,VALID,0,
2015-06-25, 08:24:04,VALID,919.597,VALID,0,VALID,84.0863,VALID,314.803,VALID,22.5103,VALID,212,VALID,0,
2015-06-25, 08:25:04,VALID,919.645,VALID,0,VALID,84.1778,VALID,318.67,VALID,22.5672,VALID,162,VALID,0,
2015-06-25, 08:26:04,VALID,919.624,VALID,0,VALID,83.9948,VALID,321.356,VALID,22.6452,VALID,163,VALID,0,
2015-06-25, 08:27:04,VALID,919.638,VALID,0,VALID,84.1244,VALID,324.58,VALID,22.7641,VALID,163,VALID,0,
2015-06-25, 08:28:04,VALID,919.597,VALID,0,VALID,81.5477,VALID,327.158,VALID,22.8599,VALID,163,VALID,0,
2015-06-25, 08:29:04,VALID,919.584,VALID,0,VALID,78.5212,VALID,330.596,VALID,22.8989,VALID,163,VALID,0,
2015-06-25, 08:30:04,VALID,919.563,VALID,0,VALID,80.3279,VALID,334.572,VALID,22.977,VALID,163,VALID,0,
2015-06-25, 08:31:04,VALID,919.559,VALID,0,VALID,79.8782,VALID,338.44,VALID,23.1917,VALID,163,VALID,0,
2015-06-25, 08:32:04,VALID,919.597,VALID,0,VALID,79.7867,VALID,340.588,VALID,23.3674,VALID,163,VALID,0,
2015-06-25, 08:33:04,VALID,919.618,VALID,0,VALID,78.9405,VALID,343.919,VALID,23.4845,VALID,163,VALID,0,
2015-06-25, 08:34:04,VALID,919.615,VALID,0,VALID,77.9571,VALID,347.035,VALID,23.6016,VALID,183,VALID,0,
2015-06-25, 08:35:04,VALID,919.65,VALID,0,VALID,78.7575,VALID,350.688,VALID,23.6602,VALID,182,VALID,0,
2015-06-25, 08:36:04,VALID,919.666,VALID,0,VALID,78.2544,VALID,354.126,VALID,23.7578,VALID,187,VALID,0,
2015-06-25, 08:37:04,VALID,919.634,VALID,0,VALID,77.9266,VALID,356.705,VALID,23.8554,VALID,196,VALID,0,
2015-06-25, 08:38:04,VALID,919.65,VALID,0,VALID,76.8821,VALID,359.82,VALID,23.9139,VALID,189,VALID,0,
2015-06-25, 08:39:04,VALID,919.637,VALID,0,VALID,76.5543,VALID,363.044,VALID,24.0506,VALID,192,VALID,0,
2015-06-25, 08:40:04,VALID,919.621,VALID,0,VALID,75.9063,VALID,366.159,VALID,24.1269,VALID,195,VALID,0,
2015-06-25, 08:41:04,VALID,919.659,VALID,0,VALID,75.0754,VALID,368.953,VALID,24.0878,VALID,151,VALID,0,
2015-06-25, 08:42:04,VALID,919.636,VALID,0,VALID,76.6611,VALID,373.036,VALID,23.9335,VALID,139,VALID,0,
2015-06-25, 08:43:04,VALID,919.639,VALID,0,VALID,77.5911,VALID,376.044,VALID,23.795,VALID,147,VALID,0,
2015-06-25, 08:44:04,VALID,919.615,VALID,0,VALID,78.0409,VALID,379.59,VALID,23.5217,VALID,149,VALID,0,
2015-06-25, 08:45:04,VALID,919.632,VALID,0,VALID,80.2669,VALID,382.383,VALID,23.3851,VALID,176,VALID,0,
2015-06-25, 08:46:04,VALID,919.63,VALID,0,VALID,80.4957,VALID,384.747,VALID,23.229,VALID,149,VALID,0.00195313,
2015-06-25, 08:47:04,VALID,919.608,VALID,0,VALID,81.4791,VALID,387.755,VALID,23.1917,VALID,168,VALID,0,
2015-06-25, 08:48:04,VALID,919.637,VALID,0,VALID,81.0217,VALID,392.59,VALID,23.2698,VALID,167,VALID,0,
2015-06-25, 08:49:04,VALID,919.635,VALID,0,VALID,79.1616,VALID,398.929,VALID,23.1314,VALID,147,VALID,0.138672,
2015-06-25, 08:50:04,VALID,919.648,VALID,0,VALID,80.8997,VALID,401.615,VALID,23.0356,VALID,152,VALID,0,
2015-06-25, 08:51:04,VALID,919.642,VALID,0,VALID,80.6024,VALID,403.764,VALID,22.9965,VALID,160,VALID,0,
2015-06-25, 08:52:04,VALID,919.644,VALID,0,VALID,81.2504,VALID,404.946,VALID,22.9965,VALID,144,VALID,0,
2015-06-25, 08:53:04,VALID,919.652,VALID,0,VALID,80.1526,VALID,409.566,VALID,22.9557,VALID,161,VALID,0,
2015-06-25, 08:54:04,VALID,919.693,VALID,0,VALID,81.5096,VALID,411.607,VALID,22.9557,VALID,165,VALID,0,
2015-06-25, 08:55:04,VALID,919.686,VALID,0,VALID,79.9315,VALID,413.326,VALID,23.0728,VALID,173,VALID,0,
2015-06-25, 08:56:04,VALID,919.727,VALID,0,VALID,81.0445,VALID,415.475,VALID,23.1722,VALID,169,VALID,0,
2015-06-25, 08:57:04,VALID,919.726,VALID,0,VALID,81.1894,VALID,418.483,VALID,23.3088,VALID,167,VALID,0,
2015-06-25, 08:58:04,VALID,919.74,VALID,0,VALID,79.7714,VALID,422.244,VALID,23.3283,VALID,167,VALID,0,
2015-06-25, 08:59:04,VALID,919.739,VALID,0,VALID,78.8185,VALID,431.054,VALID,23.4437,VALID,156,VALID,0,
2015-06-25, 09:00:04,VALID,919.75,VALID,0,VALID,80.0382,VALID,408.384,VALID,23.5022,VALID,149,VALID,0,
2015-06-25, 09:01:04,VALID,919.742,VALID,0,VALID,79.6495,VALID,135.054,VALID,23.6602,VALID,160,VALID,0,
2015-06-25, 09:02:04,VALID,919.726,VALID,0,VALID,79.3979,VALID,285.149,VALID,23.6974,VALID,173,VALID,0,
2015-06-25, 09:03:04,VALID,919.708,VALID,0,VALID,77.8351,VALID,436.641,VALID,23.5998,VALID,157,VALID,0,
2015-06-25, 09:04:04,VALID,919.678,VALID,0,VALID,77.9952,VALID,353.911,VALID,23.5608,VALID,152,VALID,0,
2015-06-25, 09:05:04,VALID,919.673,VALID,0,VALID,79.0091,VALID,448.782,VALID,23.6584,VALID,166,VALID,0,
2015-06-25, 09:06:04,VALID,919.674,VALID,0,VALID,77.797,VALID,449.534,VALID,23.834,VALID,178,VALID,0,
2015-06-25, 09:07:04,VALID,919.686,VALID,0,VALID,77.0041,VALID,473.815,VALID,23.9512,VALID,137,VALID,0,
2015-06-25, 09:08:04,VALID,919.681,VALID,0,VALID,76.4629,VALID,399.036,VALID,24.0488,VALID,137,VALID,0,
2015-06-25, 09:09:04,VALID,919.713,VALID,0,VALID,75.5862,VALID,133.657,VALID,24.1659,VALID,181,VALID,0,
2015-06-25, 09:10:04,VALID,919.728,VALID,0,VALID,75.6548,VALID,174.807,VALID,24.1464,VALID,181,VALID,0,
2015-06-25, 09:11:04,VALID,919.735,VALID,0,VALID,76.2647,VALID,386.573,VALID,24.0878,VALID,181,VALID,0,
2015-06-25, 09:12:04,VALID,919.756,VALID,0,VALID,77.3548,VALID,472.741,VALID,24.1073,VALID,181,VALID,0,
2015-06-25, 09:13:04,VALID,919.686,VALID,0,VALID,76.1808,VALID,353.159,VALID,24.1464,VALID,181,VALID,0,
2015-06-25, 09:14:04,VALID,919.703,VALID,0,VALID,77.0194,VALID,403.764,VALID,24.2263,VALID,179,VALID,0,
2015-06-25, 09:15:04,VALID,919.696,VALID,0,VALID,77.0651,VALID,448.997,VALID,24.3806,VALID,95,VALID,0,
2015-06-25, 09:16:04,VALID,919.67,VALID,0,VALID,76.8898,VALID,464.576,VALID,24.654,VALID,95,VALID,0,
2015-06-25, 09:17:04,VALID,919.66,VALID,0,VALID,74.557,VALID,468.766,VALID,24.8883,VALID,95,VALID,0,
2015-06-25, 09:18:04,VALID,919.638,VALID,0,VALID,73.2839,VALID,379.697,VALID,24.984,VALID,99,VALID,0,
2015-06-25, 09:19:04,VALID,919.596,VALID,0,VALID,73.383,VALID,469.84,VALID,24.9859,VALID,96,VALID,0,
2015-06-25, 09:20:04,VALID,919.61,VALID,0,VALID,73.6956,VALID,477.146,VALID,25.1226,VALID,95,VALID,0,
2015-06-25, 09:21:04,VALID,919.622,VALID,0,VALID,73.4669,VALID,479.617,VALID,25.2398,VALID,95,VALID,0,
2015-06-25, 09:22:04,VALID,919.647,VALID,0,VALID,72.0337,VALID,486.601,VALID,25.2183,VALID,49,VALID,0,
2015-06-25, 09:23:04,VALID,919.646,VALID,0,VALID,71.4085,VALID,491.006,VALID,25.2984,VALID,35,VALID,0,
2015-06-25, 09:24:04,VALID,919.641,VALID,0,VALID,71.0274,VALID,494.767,VALID,25.2788,VALID,35,VALID,0,
2015-06-25, 09:25:04,VALID,919.656,VALID,0,VALID,72.1328,VALID,499.172,VALID,25.2788,VALID,35,VALID,0,
2015-06-25, 09:26:04,VALID,919.702,VALID,0,VALID,73.1009,VALID,503.684,VALID,25.316,VALID,35,VALID,0,
2015-06-25, 09:27:04,VALID,919.687,VALID,0,VALID,74.2673,VALID,508.841,VALID,25.1207,VALID,35,VALID,0,
2015-06-25, 09:28:04,VALID,919.69,VALID,0,VALID,74.0234,VALID,513.676,VALID,25.1422,VALID,35,VALID,0,
2015-06-25, 09:29:04,VALID,919.709,VALID,0,VALID,71.965,VALID,517.544,VALID,25.1207,VALID,35,VALID,0,
2015-06-25, 09:30:04,VALID,919.693,VALID,0,VALID,72.3843,VALID,516.04,VALID,24.8474,VALID,35,VALID,0,
2015-06-25, 09:31:04,VALID,919.685,VALID,0,VALID,72.9942,VALID,516.577,VALID,24.6521,VALID,35,VALID,0,
2015-06-25, 09:32:04,VALID,919.646,VALID,0,VALID,73.627,VALID,514.751,VALID,24.6326,VALID,35,VALID,0,
2015-06-25, 09:33:04,VALID,919.672,VALID,0,VALID,73.7108,VALID,517.866,VALID,24.654,VALID,35,VALID,0,
2015-06-25, 09:34:04,VALID,919.669,VALID,0,VALID,74.3359,VALID,522.594,VALID,24.7479,VALID,35,VALID,0,
2015-06-25, 09:35:04,VALID,919.67,VALID,0,VALID,74.5036,VALID,525.28,VALID,24.945,VALID,35,VALID,0,
2015-06-25, 09:36:04,VALID,919.709,VALID,0,VALID,73.8785,VALID,525.924,VALID,25.1988,VALID,42,VALID,0,
2015-06-25, 09:37:04,VALID,919.706,VALID,0,VALID,71.6296,VALID,529.47,VALID,25.355,VALID,17,VALID,0.546484,
2015-06-25, 09:38:04,VALID,919.731,VALID,0,VALID,72.5368,VALID,534.52,VALID,25.4331,VALID,17,VALID,0,
2015-06-25, 09:39:04,VALID,919.758,VALID,0,VALID,73.5888,VALID,538.388,VALID,25.5289,VALID,360,VALID,0,
2015-06-25, 09:40:04,VALID,919.812,VALID,0,VALID,71.7516,VALID,540.644,VALID,25.646,VALID,342,VALID,0,
2015-06-25, 09:41:04,VALID,919.818,VALID,0,VALID,69.4646,VALID,545.479,VALID,25.5093,VALID,268,VALID,0,
2015-06-25, 09:42:04,VALID,919.817,VALID,0,VALID,71.2484,VALID,549.347,VALID,25.4527,VALID,265,VALID,0,
2015-06-25, 09:43:04,VALID,919.844,VALID,0,VALID,70.9511,VALID,553.429,VALID,25.5308,VALID,275,VALID,0,
2015-06-25, 09:44:04,VALID,919.793,VALID,0,VALID,70.0592,VALID,556.653,VALID,25.3941,VALID,254,VALID,0,
2015-06-25, 09:45:04,VALID,919.781,VALID,0,VALID,74.5341,VALID,559.339,VALID,25.4507,VALID,346,VALID,0,
2015-06-25, 09:46:04,VALID,919.793,VALID,0,VALID,69.5942,VALID,562.454,VALID,25.5894,VALID,323,VALID,0,
2015-06-25, 09:47:04,VALID,919.763,VALID,0,VALID,67.5282,VALID,566.322,VALID,25.4722,VALID,303,VALID,0,
2015-06-25, 09:48:04,VALID,919.759,VALID,0,VALID,68.4964,VALID,565.033,VALID,25.5523,VALID,346,VALID,0,
2015-06-25, 09:49:04,VALID,919.756,VALID,0,VALID,68.8776,VALID,568.041,VALID,25.648,VALID,320,VALID,0,
2015-06-25, 09:50:04,VALID,919.748,VALID,0,VALID,68.7022,VALID,569.331,VALID,25.6304,VALID,317,VALID,0,
2015-06-25, 09:51:04,VALID,919.711,VALID,0,VALID,70.0135,VALID,576.207,VALID,25.4546,VALID,303,VALID,0,
2015-06-25, 09:52:04,VALID,919.726,VALID,0,VALID,71.3628,VALID,582.868,VALID,25.3374,VALID,311,VALID,0,
2015-06-25, 09:53:04,VALID,919.697,VALID,0,VALID,71.0884,VALID,592.968,VALID,25.2769,VALID,304,VALID,0,
2015-06-25, 09:54:04,VALID,919.719,VALID,0,VALID,70.3413,VALID,604.571,VALID,25.1793,VALID,281,VALID,0.0289063,
2015-06-25, 09:55:04,VALID,919.72,VALID,0,VALID,72.2547,VALID,620.473,VALID,25.1793,VALID,264,VALID,0,
2015-06-25, 09:56:04,VALID,919.739,VALID,0,VALID,70.4251,VALID,643.787,VALID,25.3355,VALID,256,VALID,0,
2015-06-25, 09:57:04,VALID,919.755,VALID,0,VALID,71.1646,VALID,520.23,VALID,25.5132,VALID,265,VALID,0,
2015-06-25, 09:58:04,VALID,919.782,VALID,0,VALID,69.7695,VALID,709.756,VALID,25.5698,VALID,257,VALID,0,
2015-06-25, 09:59:04,VALID,919.79,VALID,0,VALID,70.9054,VALID,437.393,VALID,25.689,VALID,228,VALID,0,
2015-06-25, 10:00:04,VALID,919.787,VALID,0,VALID,68.6184,VALID,752.948,VALID,25.7066,VALID,252,VALID,0.0832031,
2015-06-25, 10:01:04,VALID,919.768,VALID,0,VALID,69.617,VALID,631.002,VALID,25.7671,VALID,251,VALID,0,
2015-06-25, 10:02:04,VALID,919.776,VALID,0,VALID,69.0453,VALID,729.848,VALID,25.9214,VALID,297,VALID,0,
2015-06-25, 10:03:04,VALID,919.767,VALID,0,VALID,67.6883,VALID,764.014,VALID,25.7456,VALID,299,VALID,0,
2015-06-25, 10:04:04,VALID,919.735,VALID,0,VALID,69.4417,VALID,326.299,VALID,25.687,VALID,299,VALID,0,
2015-06-25, 10:05:04,VALID,919.713,VALID,0,VALID,68.9462,VALID,320.067,VALID,25.8042,VALID,358,VALID,0.578906,
2015-06-25, 10:06:04,VALID,919.697,VALID,0,VALID,69.1596,VALID,726.302,VALID,25.9019,VALID,1,VALID,0,
2015-06-25, 10:07:04,VALID,919.664,VALID,0,VALID,68.1076,VALID,706.64,VALID,26.0581,VALID,333,VALID,0,
2015-06-25, 10:08:04,VALID,919.646,VALID,0,VALID,67.5206,VALID,723.831,VALID,26.2534,VALID,297,VALID,0,
2015-06-25, 10:09:04,VALID,919.625,VALID,0,VALID,68.1686,VALID,637.341,VALID,26.2339,VALID,292,VALID,0.0105469,
2015-06-25, 10:10:04,VALID,919.647,VALID,0,VALID,66.8878,VALID,609.514,VALID,26.0796,VALID,302,VALID,0,
2015-06-25, 10:11:04,VALID,919.586,VALID,0,VALID,68.6946,VALID,296.323,VALID,25.8042,VALID,328,VALID,0.432813,
2015-06-25, 10:12:04,VALID,919.573,VALID,0,VALID,70.9816,VALID,712.657,VALID,25.7847,VALID,308,VALID,0,
2015-06-25, 10:13:04,VALID,919.519,VALID,0,VALID,69.8686,VALID,528.825,VALID,25.8237,VALID,304,VALID,0,
2015-06-25, 10:14:04,VALID,919.498,VALID,0,VALID,69.9906,VALID,702.021,VALID,25.687,VALID,288,VALID,0,
2015-06-25, 10:15:04,VALID,919.506,VALID,0,VALID,70.9969,VALID,305.348,VALID,25.6675,VALID,312,VALID,0,
2015-06-25, 10:16:04,VALID,919.477,VALID,0,VALID,71.1875,VALID,680.317,VALID,25.7261,VALID,360,VALID,0,
2015-06-25, 10:17:04,VALID,919.561,VALID,0,VALID,69.5256,VALID,689.342,VALID,25.8042,VALID,297,VALID,0,
2015-06-25, 10:18:04,VALID,919.502,VALID,0,VALID,68.3897,VALID,685.152,VALID,25.7261,VALID,301,VALID,0,
2015-06-25, 10:19:04,VALID,919.478,VALID,0,VALID,69.861,VALID,695.574,VALID,25.5698,VALID,296,VALID,0,
2015-06-25, 10:20:04,VALID,919.464,VALID,0,VALID,71.2256,VALID,697.078,VALID,25.6284,VALID,296,VALID,0,
2015-06-25, 10:21:04,VALID,919.42,VALID,0,VALID,69.1444,VALID,722.649,VALID,25.8433,VALID,310,VALID,0,
2015-06-25, 10:22:04,VALID,919.404,VALID,0,VALID,67.7493,VALID,689.02,VALID,25.9214,VALID,291,VALID,0,
2015-06-25, 10:23:04,VALID,919.378,VALID,0,VALID,69.3502,VALID,670.003,VALID,25.8433,VALID,330,VALID,0,
2015-06-25, 10:24:04,VALID,919.364,VALID,0,VALID,69.6018,VALID,649.267,VALID,26.1167,VALID,339,VALID,0,
2015-06-25, 10:25:04,VALID,919.359,VALID,0,VALID,69.2511,VALID,557.942,VALID,26.3511,VALID,318,VALID,0,
2015-06-25, 10:26:04,VALID,919.35,VALID,0,VALID,67.4596,VALID,716.203,VALID,26.5074,VALID,254,VALID,0,
2015-06-25, 10:27:04,VALID,919.323,VALID,0,VALID,67.1852,VALID,721.682,VALID,26.5054,VALID,289,VALID,0,
2015-06-25, 10:28:04,VALID,919.315,VALID,0,VALID,67.8941,VALID,722.542,VALID,26.5855,VALID,39,VALID,0.00585938,
2015-06-25, 10:29:04,VALID,919.3,VALID,0,VALID,67.7798,VALID,723.616,VALID,26.8785,VALID,39,VALID,0,
2015-06-25, 10:30:04,VALID,919.308,VALID,0,VALID,65.2336,VALID,719.426,VALID,26.7418,VALID,296,VALID,0.0917969,
2015-06-25, 10:31:04,VALID,919.271,VALID,0,VALID,67.4596,VALID,718.566,VALID,26.4468,VALID,286,VALID,0,
2015-06-25, 10:32:04,VALID,919.243,VALID,0,VALID,67.4901,VALID,712.335,VALID,26.4468,VALID,14,VALID,1.96016,
2015-06-25, 10:33:04,VALID,919.252,VALID,0,VALID,67.9246,VALID,714.161,VALID,26.6421,VALID,20,VALID,0.0121094,
2015-06-25, 10:34:04,VALID,919.226,VALID,0,VALID,68.2982,VALID,539.14,VALID,26.7613,VALID,295,VALID,0,
2015-06-25, 10:35:04,VALID,919.216,VALID,0,VALID,66.7735,VALID,692.136,VALID,26.7788,VALID,5,VALID,2.29609,
2015-06-25, 10:36:04,VALID,919.211,VALID,0,VALID,67.3071,VALID,708.574,VALID,26.6441,VALID,16,VALID,0.724609,
2015-06-25, 10:37:04,VALID,919.229,VALID,0,VALID,67.1318,VALID,701.054,VALID,26.5249,VALID,18,VALID,1.58242,
2015-06-25, 10:38:04,VALID,919.23,VALID,0,VALID,69.5332,VALID,702.88,VALID,26.603,VALID,349,VALID,0,
2015-06-25, 10:39:04,VALID,919.226,VALID,0,VALID,67.7341,VALID,722.327,VALID,26.8395,VALID,344,VALID,0,
2015-06-25, 10:40:04,VALID,919.219,VALID,0,VALID,64.921,VALID,740.807,VALID,26.605,VALID,295,VALID,1.1582,
2015-06-25, 10:41:04,VALID,919.153,VALID,0,VALID,66.5143,VALID,760.791,VALID,26.4488,VALID,256,VALID,0,
2015-06-25, 10:42:04,VALID,919.179,VALID,0,VALID,66.9946,VALID,728.236,VALID,26.564,VALID,309,VALID,0.491406,
2015-06-25, 10:43:04,VALID,919.076,VALID,0,VALID,66.0721,VALID,167.716,VALID,26.5249,VALID,20,VALID,0,
2015-06-25, 10:44:04,VALID,919.085,VALID,0,VALID,66.1636,VALID,162.451,VALID,26.4077,VALID,46,VALID,0,
2015-06-25, 10:45:04,VALID,919.085,VALID,0,VALID,69.7771,VALID,182.113,VALID,26.5054,VALID,46,VALID,0,
2015-06-25, 10:46:04,VALID,919.046,VALID,0,VALID,68.3134,VALID,419.235,VALID,26.6421,VALID,21,VALID,0,
2015-06-25, 10:47:04,VALID,919.07,VALID,0,VALID,67.5053,VALID,768.634,VALID,26.8199,VALID,20,VALID,0,
2015-06-25, 10:48:04,VALID,919.059,VALID,0,VALID,67.7112,VALID,632.828,VALID,27.0132,VALID,31,VALID,0,
2015-06-25, 10:49:04,VALID,919.068,VALID,0,VALID,67.2995,VALID,160.195,VALID,27.15,VALID,354,VALID,0,
2015-06-25, 10:50:04,VALID,919.05,VALID,0,VALID,65.8282,VALID,158.153,VALID,27.0174,VALID,19,VALID,0.476172,
2015-06-25, 10:51:04,VALID,919.036,VALID,0,VALID,66.1408,VALID,722.757,VALID,26.6832,VALID,284,VALID,0,
2015-06-25, 10:52:04,VALID,919.041,VALID,0,VALID,68.3134,VALID,706.318,VALID,26.5855,VALID,27,VALID,0.542969,
2015-06-25, 10:53:04,VALID,919.012,VALID,0,VALID,68.8394,VALID,700.946,VALID,26.6852,VALID,12,VALID,0.0179687,
2015-06-25, 10:54:04,VALID,919.019,VALID,0,VALID,66.1179,VALID,701.913,VALID,26.8785,VALID,11,VALID,0,
2015-06-25, 10:55:04,VALID,919.007,VALID,0,VALID,67.7569,VALID,707.93,VALID,26.9567,VALID,17,VALID,1.73633,
2015-06-25, 10:56:04,VALID,919.007,VALID,0,VALID,64.3111,VALID,716.418,VALID,26.859,VALID,13,VALID,0,
2015-06-25, 10:57:04,VALID,919.006,VALID,0,VALID,66.4762,VALID,737.369,VALID,26.7223,VALID,11,VALID,0.357422,
2015-06-25, 10:58:04,VALID,919.018,VALID,0,VALID,67.147,VALID,758.964,VALID,26.7243,VALID,37,VALID,0.00429688,
2015-06-25, 10:59:04,VALID,918.996,VALID,0,VALID,66.2399,VALID,454.261,VALID,26.8785,VALID,5,VALID,1.79141,
2015-06-25, 11:00:04,VALID,919.053,VALID,0,VALID,65.9807,VALID,192.105,VALID,26.8806,VALID,322,VALID,0.0632813,
2015-06-25, 11:01:04,VALID,919.018,VALID,0,VALID,66.8345,VALID,739.517,VALID,26.8395,VALID,20,VALID,1.07148,
2015-06-25, 11:02:04,VALID,919.045,VALID,0,VALID,65.7215,VALID,742.418,VALID,26.9587,VALID,11,VALID,0.269141,
2015-06-25, 11:03:04,VALID,919.034,VALID,0,VALID,65.9349,VALID,736.617,VALID,26.9372,VALID,280,VALID,0.0816406,